| time (UTC) | temp F | wind direction | speed MPH | gust MPH | rain 1hr in | rain 24hr in | rain mn in | humidity % | barometer mb |
| 20260905101546 | 51 | 214 | 3.0 | 5.0 | 0.00 | 0.00 | 0.00 | 68 | 1018.0 |
| 20260905100047 | 52 | 0 | 0.0 | 2.0 | 0.00 | 0.00 | 0.00 | 68 | 1017.7 |
| 20260905094544 | 52 | 312 | 2.0 | 7.0 | 0.00 | 0.00 | 0.00 | 65 | 1017.9 |
| 20260905093042 | 53 | 243 | 3.0 | 5.0 | 0.00 | 0.00 | 0.00 | 64 | 1018.0 |
| 20260905091542 | 53 | 103 | 1.0 | 2.0 | 0.00 | 0.00 | 0.00 | 65 | 1017.5 |
| 20260905090044 | 54 | 103 | 1.0 | 4.0 | 0.00 | 0.00 | 0.00 | 63 | 1017.0 |
| 20260905084541 | 54 | 103 | 0.0 | 6.0 | 0.00 | 0.00 | 0.00 | 62 | 1016.8 |
| 20260905083045 | 55 | 63 | 0.0 | 6.0 | 0.00 | 0.00 | 0.00 | 61 | 1016.3 |
| 20260905081552 | 57 | 23 | 3.0 | 8.0 | 0.00 | 0.00 | 0.00 | 57 | 1016.6 |
| 20260905080046 | 59 | 0 | 1.0 | 7.0 | 0.00 | 0.00 | 0.00 | 55 | 1017.5 |
| 20260905074554 | 58 | 114 | 3.0 | 8.0 | 0.00 | 0.00 | 0.00 | 57 | 1017.7 |
| 20260905073058 | 56 | 134 | 3.0 | 9.0 | 0.00 | 0.00 | 0.00 | 60 | 1017.6 |
| 20260905071544 | 55 | 130 | 2.0 | 4.0 | 0.00 | 0.00 | 0.00 | 59 | 1017.5 |
| 20260905070048 | 56 | 187 | 3.0 | 7.0 | 0.00 | 0.00 | 0.00 | 57 | 1016.8 |
| 20260905064545 | 58 | 213 | 5.0 | 8.0 | 0.00 | 0.00 | 0.00 | 54 | 1017.1 |
| 20260905063044 | 57 | 260 | 1.0 | 4.0 | 0.00 | 0.00 | 0.00 | 54 | 1017.1 |
| 20260905061543 | 57 | 281 | 2.0 | 6.0 | 0.00 | 0.00 | 0.00 | 54 | 1017.1 |
| 20260905060046 | 57 | 228 | 3.0 | 12.0 | 0.00 | 0.00 | 0.00 | 55 | 1016.9 |
| 20260905054548 | 57 | 0 | 0.0 | 5.0 | 0.00 | 0.00 | 0.00 | 54 | 1016.5 |
| 20260905053110 | 58 | 2 | 1.0 | 4.0 | 0.00 | 0.00 | 0.00 | 52 | 1016.4 |
| 20260905051543 | 59 | 291 | 3.0 | 5.0 | 0.00 | 0.00 | 0.00 | 50 | 1016.4 |
| 20260905050048 | 61 | 138 | 1.0 | 6.0 | 0.00 | 0.00 | 0.00 | 48 | 1016.5 |
| 20260905044548 | 62 | 138 | 1.0 | 4.0 | 0.00 | 0.00 | 0.00 | 47 | 1016.4 |
| 20260905043043 | 62 | 0 | 0.0 | 10.0 | 0.00 | 0.00 | 0.00 | 46 | 1016.5 |
| 20260905041546 | 63 | 256 | 2.0 | 4.0 | 0.00 | 0.00 | 0.00 | 46 | 1016.4 |
| 20260905040047 | 63 | 316 | 7.0 | 11.0 | 0.00 | 0.00 | 0.00 | 45 | 1015.8 |
| 20260905034550 | 64 | 338 | 10.0 | 15.0 | 0.00 | 0.00 | 0.00 | 44 | 1015.4 |
| 20260905033056 | 64 | 329 | 9.0 | 12.0 | 0.00 | 0.00 | 0.00 | 44 | 1015.4 |
| 20260905031545 | 64 | 317 | 6.0 | 12.0 | 0.00 | 0.00 | 0.00 | 44 | 1015.5 |
| 20260905030047 | 64 | 290 | 5.0 | 9.0 | 0.00 | 0.00 | 0.00 | 43 | 1015.4 |
| 20260905024545 | 64 | 329 | 8.0 | 13.0 | 0.00 | 0.00 | 0.00 | 43 | 1014.9 |
| 20260905023045 | 65 | 329 | 5.0 | 13.0 | 0.00 | 0.00 | 0.00 | 42 | 1014.8 |
| 20260905021545 | 65 | 310 | 11.0 | 18.0 | 0.00 | 0.00 | 0.00 | 42 | 1014.8 |
| 20260905020044 | 65 | 345 | 13.0 | 19.0 | 0.00 | 0.00 | 0.00 | 41 | 1013.8 |
| 20260905014546 | 65 | 350 | 14.0 | 23.0 | 0.00 | 0.00 | 0.00 | 40 | 1013.1 |
| 20260905013047 | 65 | 335 | 16.0 | 23.0 | 0.00 | 0.00 | 0.00 | 39 | 1013.1 |
| 20260905011545 | 66 | 354 | 15.0 | 20.0 | 0.00 | 0.00 | 0.00 | 38 | 1013.3 |
| 20260905010043 | 67 | 349 | 5.0 | 15.0 | 0.00 | 0.00 | 0.00 | 37 | 1013.3 |
| 20260905004549 | 68 | 343 | 12.0 | 18.0 | 0.00 | 0.00 | 0.00 | 35 | 1013.3 |
| 20260905003046 | 68 | 324 | 13.0 | 23.0 | 0.00 | 0.00 | 0.00 | 35 | 1013.4 |
| 20260905001544 | 69 | 295 | 15.0 | 19.0 | 0.00 | 0.00 | 0.00 | 34 | 1013.6 |
| 20260905000048 | 70 | 304 | 14.0 | 20.0 | 0.00 | 0.00 | 0.00 | 33 | 1013.7 |
| 20260904234546 | 70 | 304 | 15.0 | 21.0 | 0.00 | 0.00 | 0.00 | 33 | 1013.5 |
| 20260904233050 | 70 | 307 | 14.0 | 21.0 | 0.00 | 0.00 | 0.00 | 33 | 1013.7 |
| 20260904231545 | 70 | 281 | 12.0 | 23.0 | 0.00 | 0.00 | 0.00 | 33 | 1013.6 |
| 20260904230044 | 70 | 305 | 10.0 | 23.0 | 0.00 | 0.00 | 0.00 | 33 | 1013.4 |
| 20260904224600 | 70 | 291 | 14.0 | 19.0 | 0.00 | 0.00 | 0.00 | 33 | 1013.4 |
| 20260904223048 | 70 | 304 | 17.0 | 24.0 | 0.00 | 0.00 | 0.00 | 33 | 1013.2 |
| 20260904221548 | 70 | 281 | 14.0 | 22.0 | 0.00 | 0.00 | 0.00 | 32 | 1013.0 |
| 20260904220045 | 70 | 299 | 16.0 | 25.0 | 0.00 | 0.00 | 0.00 | 32 | 1013.0 |
| 20260904214550 | 70 | 292 | 13.0 | 26.0 | 0.00 | 0.00 | 0.00 | 34 | 1012.7 |
| 20260904213047 | 70 | 317 | 18.0 | 28.0 | 0.00 | 0.00 | 0.00 | 34 | 1012.4 |
| 20260904211545 | 70 | 292 | 15.0 | 24.0 | 0.00 | 0.00 | 0.00 | 35 | 1012.1 |
| 20260904210052 | 69 | 292 | 21.0 | 27.0 | 0.00 | 0.00 | 0.00 | 35 | 1012.0 |
| 20260904204544 | 69 | 277 | 18.0 | 25.0 | 0.00 | 0.00 | 0.00 | 36 | 1011.9 |
| 20260904203046 | 69 | 277 | 18.0 | 25.0 | 0.00 | 0.00 | 0.00 | 36 | 1011.8 |
| 20260904201558 | 68 | 277 | 15.0 | 23.0 | 0.00 | 0.00 | 0.00 | 38 | 1011.6 |
| 20260904200044 | 68 | 263 | 17.0 | 22.0 | 0.00 | 0.00 | 0.00 | 38 | 1011.5 |
| 20260904194559 | 68 | 287 | 12.0 | 16.0 | 0.00 | 0.00 | 0.00 | 38 | 1011.1 |
| 20260904193046 | 68 | 268 | 12.0 | 18.0 | 0.00 | 0.00 | 0.00 | 37 | 1010.7 |
| 20260904191543 | 69 | 251 | 3.0 | 9.0 | 0.00 | 0.00 | 0.00 | 36 | 1010.4 |
| 20260904190045 | 69 | 246 | 7.0 | 11.0 | 0.00 | 0.00 | 0.00 | 37 | 1010.4 |
| 20260904184545 | 68 | 230 | 3.0 | 7.0 | 0.00 | 0.00 | 0.00 | 35 | 1010.2 |
| 20260904183045 | 68 | 262 | 3.0 | 9.0 | 0.00 | 0.00 | 0.00 | 37 | 1010.1 |
| 20260904181544 | 67 | 263 | 3.0 | 8.0 | 0.00 | 0.00 | 0.00 | 37 | 1010.1 |
| 20260904180048 | 67 | 251 | 4.0 | 11.0 | 0.00 | 0.00 | 0.00 | 38 | 1010.1 |
| 20260904174548 | 66 | 220 | 0.0 | 6.0 | 0.00 | 0.00 | 0.00 | 38 | 1010.0 |
| 20260904173102 | 66 | 188 | 1.0 | 8.0 | 0.00 | 0.00 | 0.00 | 38 | 1009.7 |
| 20260904171548 | 65 | 189 | 2.0 | 8.0 | 0.00 | 0.00 | 0.00 | 39 | 1009.6 |
| 20260904170046 | 65 | 208 | 3.0 | 7.0 | 0.00 | 0.00 | 0.00 | 39 | 1009.5 |
| 20260904164553 | 64 | 183 | 6.0 | 11.0 | 0.00 | 0.00 | 0.00 | 39 | 1009.6 |
| 20260904163042 | 65 | 204 | 7.0 | 12.0 | 0.00 | 0.00 | 0.00 | 39 | 1009.4 |
| 20260904161540 | 65 | 210 | 7.0 | 10.0 | 0.00 | 0.00 | 0.00 | 39 | 1009.5 |
| 20260904160046 | 65 | 198 | 2.0 | 7.0 | 0.00 | 0.00 | 0.00 | 40 | 1009.3 |
| 20260904154547 | 65 | 213 | 2.0 | 9.0 | 0.00 | 0.00 | 0.00 | 39 | 1008.9 |
| 20260904153046 | 65 | 121 | 2.0 | 9.0 | 0.00 | 0.00 | 0.00 | 40 | 1008.3 |
| 20260904151540 | 64 | 58 | 4.0 | 9.0 | 0.00 | 0.00 | 0.00 | 42 | 1007.9 |
| 20260904150104 | 63 | 66 | 3.0 | 10.0 | 0.00 | 0.00 | 0.00 | 43 | 1008.1 |
| 20260904144544 | 62 | 50 | 7.0 | 13.0 | 0.00 | 0.00 | 0.00 | 44 | 1007.9 |
| 20260904143040 | 61 | 54 | 6.0 | 11.0 | 0.00 | 0.00 | 0.00 | 46 | 1007.9 |
| 20260904141546 | 60 | 50 | 3.0 | 10.0 | 0.00 | 0.00 | 0.00 | 48 | 1008.0 |
| 20260904140044 | 59 | 63 | 10.0 | 15.0 | 0.00 | 0.00 | 0.00 | 48 | 1007.7 |
| 20260904134553 | 58 | 73 | 5.0 | 11.0 | 0.00 | 0.00 | 0.00 | 50 | 1008.0 |
| 20260904133046 | 57 | 62 | 6.0 | 12.0 | 0.00 | 0.00 | 0.00 | 52 | 1008.0 |
| 20260904131545 | 56 | 56 | 3.0 | 10.0 | 0.00 | 0.00 | 0.00 | 53 | 1008.1 |
| 20260904130041 | 56 | 50 | 4.0 | 11.0 | 0.00 | 0.00 | 0.00 | 54 | 1007.6 |
| 20260904124545 | 55 | 54 | 7.0 | 15.0 | 0.00 | 0.00 | 0.00 | 55 | 1007.7 |
| 20260904123043 | 54 | 121 | 5.0 | 9.0 | 0.00 | 0.00 | 0.00 | 57 | 1007.9 |
| 20260904121544 | 54 | 54 | 4.0 | 9.0 | 0.00 | 0.00 | 0.00 | 58 | 1007.6 |
| 20260904120052 | 55 | 56 | 4.0 | 8.0 | 0.00 | 0.00 | 0.00 | 55 | 1007.9 |
| 20260904114547 | 56 | 360 | 2.0 | 12.0 | 0.00 | 0.00 | 0.00 | 53 | 1007.9 |
| 20260904113046 | 57 | 56 | 5.0 | 10.0 | 0.00 | 0.00 | 0.00 | 52 | 1008.0 |
| 20260904111546 | 57 | 29 | 7.0 | 10.0 | 0.00 | 0.00 | 0.00 | 52 | 1007.9 |
| 20260904110043 | 57 | 50 | 5.0 | 10.0 | 0.00 | 0.00 | 0.00 | 52 | 1008.0 |
| 20260904104548 | 57 | 61 | 2.0 | 15.0 | 0.00 | 0.00 | 0.00 | 52 | 1008.1 |
| 20260904103044 | 56 | 37 | 9.0 | 13.0 | 0.00 | 0.00 | 0.00 | 53 | 1008.3 |